STARLINK-35955, 66635

Orbit data source: Space-Track

STARLINK-35955, 66635 is a payload satellite owned by SpaceX/Seattle (US) in LEO that was launched on Sun, 23 Nov 2025 UTC via an FALCON 9 launch vehicle from the Air Force Western Test Range (AFWTR). Payload-class satellites include a variety of spacecraft equipped with specific instruments for various scientific and technological missions. These include communications satellites like Starlink; space stations such as the ISS; scientific satellites like the Hubble; Earth observation satellites from companies like Planet Labs, Umbra, and HawkEye 360; GPS; miniature CubeSats for education and research; and military/defense satellites.

Loading next visibility...
Identifier
66635, 2025-271U
Orbit
LEO
Country
Flag of USUS
Related business
Manufacturer
SpaceX/Seattle
Mission
Operational Commercial Communications
Bus & Motor
STARLINK V2MO, Unknown motor
Mass
575 kg wet, ~530 kg dry
Launch date (UTC)
2025-11-23 (1 month ago)
Launch vehicle
FALCON 9
Launch site
Air Force Western Test Range (AFWTR)
Object type
Payload
Rocket body
Debris
Shape & HBR
Box + 2 Pan, 17.7 m
Radar Cross Section
36.964 m²

Expand to show TLE details & history
Last TLE update: 12 hours ago

TLE from 12 hours ago
0 STARLINK-35955
1 66635U 25271U   25355.13010559  .00030162  00000-0  76072-3 0  9994
2 66635  53.1604 147.3353 0001014  89.6852 270.4269 15.39633709  5503
Epoch: 2025-12-21T03:07Z
TLE epoch observation values (Epoch: 2025-12-21T03:07:21.122Z)
Latitude
-0.00005°
Longitude
10.55028°
Altitude
448.09 km
Speed
7.645 km/s
True Right ascension
09h 49m 20s
True Declination
0° 00' 00"
Sunlit
Object was in full shadow at epoch
Visualization orbit readout
Latitude
Unknown
Longitude
Unknown
Altitude
Unknown
Speed
Unknown
Apparent Right ascension
Unknown
Apparent Declination
Unknown
Sunlit
N/A
Visualization observer readout
Local Sidereal Time
13:58:17
Azimuth
Unknown
Elevation
Unknown
Doppler factor
Unknown
Orbital elements
Apogee altitude
448.141 km
Perigee altitude
446.757 km
Semi-major axis
6,825.586 km
Eccentricity
0.0001
Inclination
53.1604°
RAAN
147.3353°
Arg. of periapsis
89.6852°
True anomaly
270.41528°
Mean anomaly
270.4269°
Eccentric anomaly
270.42109°
Mean motion
3.84887 °/min
Orbital period
93.53 mins
BSTAR
0.00076072
Loading maneuver chart data...
Computing Atmospheric mass density...
Loading historical data...
Loading historical data...
Loading historical data...
Loading historical data...
Loading historical data...
Loading historical data...
Loading historical data...

Documentation

Showing up to 5 results
|